SCP
0 0 0 0 0 0 0 0 0 0 0 0 0 0 0 0 0 0 0 0 0 0 0 0 0 0 0 0 0 0 0 0 0 0 0 0 0 0 0 0 0 0 0
0 0 0 0 0 0 0 0 0 0 0 0 0 0 0 0 0 0 0 0 0 0 0 0 0 0 0 0 0 0 0 0 0 0 0 0 0 0 0 0 0 0 0
0 0 0 0 0 0 0 0 0 0 0 0 0 0 0 0 0 0 0 0 0 0 0 0 0 0 0 0 0 0 0 0 0 0 0 0 0 0 0 0 0 0 0
0 0 0 0 0 0 0 0 0 0 0 0 0 0 0 0 0 0 0 0 0 0 0 0 0 0 0 0 0 0 0 0 0 0 0 0 0 0 0 0 0 0 0
0 0 0 0 0 0 0 0 0 0 0 0 0 0 0 0 0 0 0 0 0 0 0 0 0 0 0 0 0 0 0 0 0 0 0 0 0 0 0 0 0 0 0
0 0 0 0 0 0 0 0 0 0 0 0 0 0 0 0 0 0 0 0 0 0 0 0 0 0 0 -0 0 0 0 0 0 0 0 0 0 0 0 0 0 0 0
0 0 0 0 0 0 0 0 0 0 0 0 0 0 0 0 0 0 0 0 0 0 0 0 0 0 0 0 0 0 0 0 0 0 0 0 0 0 0 0 0 0 0
0 0 0 0 0 0 0 0 0 0 0 0 0 0 0 0 0 0 0 0 0 0 0 0 0 0 0 0 0 0 0 0 0 0 0 0 0 0 0 0 0 0 0
0 0 0 0 0 0 0 0 0 0 0 0 0 0 0 0 0 0 0 0 0 0 0 0 0 0 -0 0 0 0 0 0 0 0 0 0 0 0 0 -0 0 0 0
0 0 0 0 0 0 0 0 0 0 0 0 0 0 0 0 0 0 0 0 0 0 0 0 0 -0 -0 -0 0 0 0 0 0 0 0 0 0 0 0 0 0 0 0
0 0 0 0 0 0 0 0 0 0 0 0 0 0 0 0 0 0 0 0 0 0 0 -0 0 -0 -0 -0 -0 0 0 0 0 0 0 0 0 0 0 -0 -0 0 0
0 0 0 0 0 0 0 0 0 0 0 0 0 0 0 0 0 0 0 0 0 0 -0 -0 -0 -0 -0 0 -0 0 0 0 0 0 0 0 0 0 0 0 0 0 0
0 0 0 0 0 0 0 0 0 0 0 0 0 0 0 0 0 0 0 0 0 0 0 -0 -0 -0 -0 -0 -0 -0 0 0 0 0 0 0 0 0 0 0 0 0 0
0 0 0 0 0 0 0 0 0 0 0 0 0 0 0 0 0 0 0 0 0 0 0 -0 -0 -0 -0 -0 0 0 0 0 0 0 0 0 0 0 0 0 0 0 0
0 0 0 0 0 0 0 0 0 0 0 0 0 0 0 0 0 0 0 0 0 0 0 -0 -0 -0 0 0 0 0 0 0 0 0 0 0 0 0 0 0 0 0 0
0 0 0 0 0 0 0 0 0 0 -0 -0 0 0 0 0 0 0 0 0 0 0 0 -0 -0 -0 0 0 0 0 0 0 0 0 0 0 0 0 0 0 0 0 0
0 0 0 0 0 0 0 0 0 -0 -0 0 0 0 0 0 0 0 0 0 0 0 0 0 -0 -0 0 0 0 0 0 0 0 0 0 0 0 0 0 0 0 0 0
0 0 0 0 0 0 0 0 0 0 0 0 0 0 0 0 0 0 0 0 0 0 0 0 0 0 0 0 0 0 0 0 0 0 0 0 0 0 0 0 0 0 0
0 0 0 0 0 0 0 0 0 0 0 0 0 0 0 0 0 0 0 0 0 0 0 0 0 0 0 0 0 0 0 0 0 0 0 0 0 0 0 0 0 0 0
0 0 0 0 -0 0 0 0 0 0 0 0 0 0 0 0 0 0 0 0 0 0 0 0 0 0 0 -0 0 0 0 0 -0 -0 -0 0 0 0 0 0 0 0 0
0 0 0 0 -0 -0 0 -0 0 0 0 0 0 0 0 0 0 0 0 0 0 0 0 0 0 0 0 -0 -0 -0 -0 -0 -0 -0 0 0 0 0 0 0 0 0 0
0 0 0 -0 0 -0 0 0 0 0 0 0 0 0 0 0 0 0 0 0 0 0 0 0 0 0 0 0 -0 -0 -0 -0 -0 -0 0 -0 -0 0 0 0 0 0 0
0 0 0 -0 -0 -0 0 0 0 0 0 0 0 0 0 0 0 0 0 0 0 0 0 0 0 0 0 0 0 0 -0 -0 -0 -0 0 0 0 0 0 0 0 0 0
0 -0 0 0 0 0 0 0 0 0 0 0 0 0 0 0 0 0 0 0 0 0 0 0 0 0 0 0 0 0 0 0 0 0 0 0 0 0 0 0 0 0 0
-0 -0 -0 -0 0 0 0 0 0 0 0 0 0 0 0 0 0 0 0 0 0 0 0 0 0 0 0 0 0 0 0 0 0 0 0 0 0 0 0 0 0 0 0
-0 0 -0 -0 0 -0 0 0 0 0 0 0 0 0 0 0 0 0 0 0 0 0 0 0 0 0 0 0 0 0 0 0 0 0 0 0 0 0 0 0 0 0 0
Wind_Speed_500mb
38 38 40 46 54 61 68 65 63 62 61 59 58 57 57 56 55 53 52 52 49 46 45 41 39 36 40 46 48 52 55 57 80 90 79 76 76 74 78 79 78 76 75
52 51 47 44 45 48 58 66 76 73 71 69 63 62 62 59 56 53 51 49 47 45 43 40 41 40 45 48 51 55 58 59 69 88 80 79 85 85 87 82 74 70 67
60 60 57 54 53 53 54 59 67 74 79 77 70 66 65 62 59 53 51 49 46 43 43 42 45 46 53 54 55 58 62 65 67 73 87 79 81 88 82 71 67 64 54
60 64 64 59 60 62 61 61 64 71 78 83 79 75 68 64 60 53 50 48 47 44 43 48 48 51 52 51 57 63 66 65 66 73 79 78 79 77 74 69 70 53 52
57 62 66 67 69 70 70 67 66 68 74 79 82 80 73 68 61 53 49 48 47 45 48 51 48 50 49 50 56 61 61 65 69 75 77 82 73 77 67 59 57 57 54
63 65 66 68 72 75 77 75 73 71 72 79 81 83 75 70 61 53 49 49 45 49 49 45 43 46 45 49 52 54 56 54 66 67 78 83 86 75 67 55 53 57 61
70 69 71 72 76 75 74 75 77 78 71 76 77 81 77 68 58 53 48 46 45 47 46 43 43 40 44 50 53 53 55 55 55 62 70 71 73 66 63 61 56 52 52
80 78 74 72 71 73 71 72 74 77 72 70 73 75 73 66 58 53 48 45 44 43 42 41 45 39 44 50 58 57 56 53 51 50 53 59 59 58 55 57 54 53 53
83 86 78 74 79 72 69 68 71 73 71 67 71 72 71 65 58 52 49 46 43 40 40 41 38 38 42 46 55 56 55 47 41 40 41 44 45 40 37 41 42 38 41
84 82 78 75 81 75 66 67 66 67 66 54 58 60 64 62 58 52 51 48 43 41 37 40 30 36 39 42 49 51 51 45 38 35 34 35 35 32 31 26 22 27 28
86 87 86 79 80 78 65 62 62 62 59 52 54 59 62 61 58 51 52 48 41 40 37 34 27 31 35 39 40 43 41 42 34 31 31 32 29 29 28 22 14 15 20
89 90 89 85 80 75 67 61 60 60 57 54 60 62 64 61 56 49 51 46 39 38 35 30 24 26 31 34 34 35 33 33 30 25 24 29 27 26 28 25 20 16 11
94 90 88 88 78 65 65 60 59 59 57 59 67 67 67 59 52 48 49 43 38 34 33 23 21 22 26 26 28 29 30 25 22 20 18 22 26 23 21 20 19 18 14
98 92 89 85 66 59 67 57 59 63 63 63 68 71 67 58 51 49 48 41 37 29 32 19 16 17 20 20 20 22 22 17 18 21 20 19 21 19 18 19 27 35 40
96 88 88 75 61 64 65 60 62 61 65 59 57 67 65 57 50 44 43 39 34 27 30 17 13 11 14 14 15 16 21 18 17 24 27 27 30 28 26 28 36 45 53
90 88 82 58 58 59 65 65 56 60 57 50 51 67 55 48 41 41 41 39 34 27 27 17 11 9 9 6 7 12 17 18 20 25 29 30 35 39 39 38 38 41 43
84 80 73 62 55 60 64 64 57 55 54 49 53 62 53 47 43 42 42 41 36 29 25 18 13 11 5 0 5 9 16 20 23 26 30 34 33 31 28 28 28 28 33
76 70 67 55 56 57 59 63 56 58 55 52 53 61 54 54 47 44 44 44 42 34 28 22 17 13 9 6 7 9 15 19 21 26 28 28 27 25 24 26 30 36 37
77 68 58 49 50 55 54 59 54 55 54 46 47 54 60 55 49 47 48 47 42 35 31 25 21 19 16 13 13 12 15 17 22 25 27 27 27 26 29 31 33 34 35
72 61 58 52 44 51 54 54 52 50 49 44 50 54 59 56 57 57 55 52 48 40 34 28 24 23 22 20 18 17 17 18 21 24 27 28 30 30 33 37 39 39 40
62 54 49 50 47 49 55 50 49 49 46 49 51 50 51 55 56 59 58 55 52 45 38 33 29 25 23 22 22 21 19 19 20 22 25 28 31 33 33 32 30 33 37
58 52 48 47 41 49 55 49 48 48 49 48 48 49 50 52 53 53 54 52 51 46 40 35 32 29 26 25 23 23 22 21 22 23 24 26 28 28 28 27 31 34 37
55 51 50 51 45 50 54 47 45 46 47 47 47 51 54 53 54 52 45 50 52 50 45 41 37 34 31 28 27 26 26 24 24 24 23 24 24 24 26 28 31 33 34
51 51 50 47 47 48 52 47 44 44 47 44 46 49 52 53 54 51 48 51 55 53 47 43 38 34 32 30 29 28 27 26 24 23 23 21 21 22 23 26 29 30 29
47 48 49 46 44 46 49 45 43 44 45 43 41 47 51 52 50 48 53 51 54 54 51 46 42 38 35 31 30 29 28 27 25 23 23 23 21 21 22 23 24 26 25
45 44 45 41 42 44 43 41 41 42 43 41 39 45 48 48 44 44 52 56 56 55 53 49 46 42 39 36 33 32 30 29 27 25 23 23 21 22 23 23 24 24 24
Wind_Direction_500mb
325 320 314 305 294 287 282 280 280 276 275 277 282 284 288 290 292 295 300 303 305 306 303 300 298 301 293 288 288 287 286 286 288 290 291 295 295 295 296 297 295 292 290
315 313 313 317 314 308 294 287 280 279 276 274 277 280 283 285 287 291 295 297 297 297 297 296 298 297 297 298 294 290 287 288 285 289 296 297 299 306 307 307 301 295 288
309 304 303 305 306 307 309 306 290 282 275 273 271 275 277 280 283 287 290 290 290 291 291 295 298 302 302 299 297 296 298 298 293 289 298 301 302 308 312 310 305 302 299
312 306 299 296 298 301 302 304 304 289 278 271 269 270 273 274 278 281 285 284 285 285 290 294 297 303 302 301 298 301 302 301 298 297 297 299 304 308 308 304 305 306 302
311 310 307 302 299 299 300 301 301 295 281 274 266 265 268 268 272 277 279 279 280 285 290 291 298 300 303 305 301 301 300 297 299 301 299 302 298 302 303 307 301 306 303
309 308 308 307 305 302 299 300 300 298 282 272 264 259 262 263 267 270 272 273 279 288 293 294 300 298 306 307 301 298 298 296 301 300 295 294 298 298 302 300 299 303 302
312 310 308 308 308 305 299 296 298 299 285 269 264 256 255 257 261 264 265 266 280 289 294 298 299 304 312 309 308 304 305 311 302 299 295 297 299 300 298 293 287 285 285
314 312 311 307 305 305 298 299 299 299 287 269 263 253 250 252 255 259 260 261 279 286 289 295 296 313 316 316 310 311 318 315 313 306 305 310 307 304 296 291 289 284 288
315 315 313 308 305 304 295 298 301 301 287 271 261 247 245 248 252 254 254 259 277 283 286 290 298 316 316 316 310 314 318 319 321 314 316 317 314 310 303 291 287 283 290
315 313 307 305 300 298 291 296 300 300 285 266 254 241 242 247 250 250 248 255 272 279 284 283 303 313 314 314 311 315 320 324 323 325 329 332 338 334 329 310 288 270 273
313 310 303 302 298 293 284 291 294 295 280 258 249 243 244 247 248 247 245 252 267 274 282 283 304 311 316 313 313 317 321 323 329 329 339 348 357 356 358 360 333 287 264
311 307 301 300 295 289 281 284 287 286 274 255 248 245 246 247 247 243 242 249 258 267 279 282 303 314 315 312 319 325 328 324 329 336 349 358 7 14 23 25 22 11 337
310 306 301 299 291 282 276 279 280 281 264 247 246 245 246 246 246 239 239 245 249 259 269 277 299 315 312 322 321 336 339 331 342 360 6 10 20 25 34 38 45 46 34
308 305 301 297 287 280 276 269 277 276 260 245 244 244 246 246 244 236 234 239 241 247 259 266 290 308 317 328 333 344 351 355 16 32 36 35 42 44 58 70 82 85 82
304 296 296 293 280 278 270 270 275 271 263 249 254 249 244 245 243 238 236 236 237 237 248 254 277 298 315 331 343 358 18 28 45 55 60 63 66 67 70 88 96 94 90
298 294 293 283 280 277 271 274 268 270 259 244 244 246 243 244 238 229 229 228 229 226 235 239 255 275 289 339 11 28 43 53 66 75 77 79 83 88 92 92 91 88 85
295 292 287 269 267 271 269 272 272 274 259 239 237 238 229 232 225 222 222 222 223 224 225 220 229 240 239 150 67 62 70 72 78 83 89 97 98 97 96 93 90 88 84
294 288 282 270 267 267 268 272 275 274 262 238 233 229 219 223 218 218 218 217 220 218 220 207 208 214 196 158 114 95 85 86 88 90 94 97 100 98 96 94 96 97 96
293 286 273 259 270 270 264 272 272 270 251 237 232 226 219 217 214 215 216 217 216 215 219 205 199 194 185 161 137 117 103 101 101 99 99 99 98 98 100 99 101 102 104
290 281 265 255 260 270 268 271 272 261 237 228 229 221 214 210 206 209 211 208 210 205 214 208 201 194 178 162 148 135 125 119 113 110 108 106 105 105 104 105 106 108 107
287 274 259 250 253 267 265 265 270 257 228 225 223 217 217 215 211 211 210 206 205 202 205 206 201 196 181 165 153 142 136 131 126 120 115 113 111 112 110 110 109 111 112
278 266 255 244 250 263 263 266 263 249 223 219 218 215 216 216 217 215 212 205 202 201 197 202 199 195 184 171 159 149 141 138 136 131 125 121 118 115 114 114 117 116 117
272 260 253 247 242 259 261 264 259 237 217 213 217 214 211 212 214 215 210 203 199 201 197 196 196 193 187 177 168 159 149 147 144 138 135 131 127 122 119 120 121 122 122
270 257 251 252 250 251 258 259 252 230 213 207 214 212 210 214 215 211 203 199 198 199 200 197 193 190 187 180 172 166 159 155 153 149 141 137 132 126 122 123 123 123 121
268 255 248 251 253 252 254 252 244 224 211 203 213 211 209 214 215 209 205 202 200 200 200 197 192 190 186 182 177 172 169 163 161 160 156 148 144 137 133 132 131 131 129
265 251 244 248 248 246 248 244 234 217 210 203 208 207 207 213 211 208 206 204 204 202 200 199 195 193 191 187 182 179 176 172 169 166 163 155 149 146 142 141 141 139 134
Wind_Speed_850mb
38 38 40 46 54 61 68 65 63 62 61 59 58 57 57 56 55 53 52 52 49 46 45 41 39 36 40 46 48 52 55 57 80 90 79 76 76 74 78 79 78 76 75
52 51 47 44 45 48 58 66 76 73 71 69 63 62 62 59 56 53 51 49 47 45 43 40 41 40 45 48 51 55 58 59 69 88 80 79 85 85 87 82 74 70 67
60 60 57 54 53 53 54 59 67 74 79 77 70 66 65 62 59 53 51 49 46 43 43 42 45 46 53 54 55 58 62 65 67 73 87 79 81 88 82 71 67 64 54
60 64 64 59 60 62 61 61 64 71 78 83 79 75 68 64 60 53 50 48 47 44 43 48 48 51 52 51 57 63 66 65 66 73 79 78 79 77 74 69 70 53 52
57 62 66 67 69 70 70 67 66 68 74 79 82 80 73 68 61 53 49 48 47 45 48 51 48 50 49 50 56 61 61 65 69 75 77 82 73 77 67 59 57 57 54
63 65 66 68 72 75 77 75 73 71 72 79 81 83 75 70 61 53 49 49 45 49 49 45 43 46 45 49 52 54 56 54 66 67 78 83 86 75 67 55 53 57 61
70 69 71 72 76 75 74 75 77 78 71 76 77 81 77 68 58 53 48 46 45 47 46 43 43 40 44 50 53 53 55 55 55 62 70 71 73 66 63 61 56 52 52
80 78 74 72 71 73 71 72 74 77 72 70 73 75 73 66 58 53 48 45 44 43 42 41 45 39 44 50 58 57 56 53 51 50 53 59 59 58 55 57 54 53 53
83 86 78 74 79 72 69 68 71 73 71 67 71 72 71 65 58 52 49 46 43 40 40 41 38 38 42 46 55 56 55 47 41 40 41 44 45 40 37 41 42 38 41
84 82 78 75 81 75 66 67 66 67 66 54 58 60 64 62 58 52 51 48 43 41 37 40 30 36 39 42 49 51 51 45 38 35 34 35 35 32 31 26 22 27 28
86 87 86 79 80 78 65 62 62 62 59 52 54 59 62 61 58 51 52 48 41 40 37 34 27 31 35 39 40 43 41 42 34 31 31 32 29 29 28 22 14 15 20
89 90 89 85 80 75 67 61 60 60 57 54 60 62 64 61 56 49 51 46 39 38 35 30 24 26 31 34 34 35 33 33 30 25 24 29 27 26 28 25 20 16 11
94 90 88 88 78 65 65 60 59 59 57 59 67 67 67 59 52 48 49 43 38 34 33 23 21 22 26 26 28 29 30 25 22 20 18 22 26 23 21 20 19 18 14
98 92 89 85 66 59 67 57 59 63 63 63 68 71 67 58 51 49 48 41 37 29 32 19 16 17 20 20 20 22 22 17 18 21 20 19 21 19 18 19 27 35 40
96 88 88 75 61 64 65 60 62 61 65 59 57 67 65 57 50 44 43 39 34 27 30 17 13 11 14 14 15 16 21 18 17 24 27 27 30 28 26 28 36 45 53
90 88 82 58 58 59 65 65 56 60 57 50 51 67 55 48 41 41 41 39 34 27 27 17 11 9 9 6 7 12 17 18 20 25 29 30 35 39 39 38 38 41 43
84 80 73 62 55 60 64 64 57 55 54 49 53 62 53 47 43 42 42 41 36 29 25 18 13 11 5 0 5 9 16 20 23 26 30 34 33 31 28 28 28 28 33
76 70 67 55 56 57 59 63 56 58 55 52 53 61 54 54 47 44 44 44 42 34 28 22 17 13 9 6 7 9 15 19 21 26 28 28 27 25 24 26 30 36 37
77 68 58 49 50 55 54 59 54 55 54 46 47 54 60 55 49 47 48 47 42 35 31 25 21 19 16 13 13 12 15 17 22 25 27 27 27 26 29 31 33 34 35
72 61 58 52 44 51 54 54 52 50 49 44 50 54 59 56 57 57 55 52 48 40 34 28 24 23 22 20 18 17 17 18 21 24 27 28 30 30 33 37 39 39 40
62 54 49 50 47 49 55 50 49 49 46 49 51 50 51 55 56 59 58 55 52 45 38 33 29 25 23 22 22 21 19 19 20 22 25 28 31 33 33 32 30 33 37
58 52 48 47 41 49 55 49 48 48 49 48 48 49 50 52 53 53 54 52 51 46 40 35 32 29 26 25 23 23 22 21 22 23 24 26 28 28 28 27 31 34 37
55 51 50 51 45 50 54 47 45 46 47 47 47 51 54 53 54 52 45 50 52 50 45 41 37 34 31 28 27 26 26 24 24 24 23 24 24 24 26 28 31 33 34
51 51 50 47 47 48 52 47 44 44 47 44 46 49 52 53 54 51 48 51 55 53 47 43 38 34 32 30 29 28 27 26 24 23 23 21 21 22 23 26 29 30 29
47 48 49 46 44 46 49 45 43 44 45 43 41 47 51 52 50 48 53 51 54 54 51 46 42 38 35 31 30 29 28 27 25 23 23 23 21 21 22 23 24 26 25
45 44 45 41 42 44 43 41 41 42 43 41 39 45 48 48 44 44 52 56 56 55 53 49 46 42 39 36 33 32 30 29 27 25 23 23 21 22 23 23 24 24 24
Wind_Direction_850mb
325 320 314 305 294 287 282 280 280 276 275 277 282 284 288 290 292 295 300 303 305 306 303 300 298 301 293 288 288 287 286 286 288 290 291 295 295 295 296 297 295 292 290
315 313 313 317 314 308 294 287 280 279 276 274 277 280 283 285 287 291 295 297 297 297 297 296 298 297 297 298 294 290 287 288 285 289 296 297 299 306 307 307 301 295 288
309 304 303 305 306 307 309 306 290 282 275 273 271 275 277 280 283 287 290 290 290 291 291 295 298 302 302 299 297 296 298 298 293 289 298 301 302 308 312 310 305 302 299
312 306 299 296 298 301 302 304 304 289 278 271 269 270 273 274 278 281 285 284 285 285 290 294 297 303 302 301 298 301 302 301 298 297 297 299 304 308 308 304 305 306 302
311 310 307 302 299 299 300 301 301 295 281 274 266 265 268 268 272 277 279 279 280 285 290 291 298 300 303 305 301 301 300 297 299 301 299 302 298 302 303 307 301 306 303
309 308 308 307 305 302 299 300 300 298 282 272 264 259 262 263 267 270 272 273 279 288 293 294 300 298 306 307 301 298 298 296 301 300 295 294 298 298 302 300 299 303 302
312 310 308 308 308 305 299 296 298 299 285 269 264 256 255 257 261 264 265 266 280 289 294 298 299 304 312 309 308 304 305 311 302 299 295 297 299 300 298 293 287 285 285
314 312 311 307 305 305 298 299 299 299 287 269 263 253 250 252 255 259 260 261 279 286 289 295 296 313 316 316 310 311 318 315 313 306 305 310 307 304 296 291 289 284 288
315 315 313 308 305 304 295 298 301 301 287 271 261 247 245 248 252 254 254 259 277 283 286 290 298 316 316 316 310 314 318 319 321 314 316 317 314 310 303 291 287 283 290
315 313 307 305 300 298 291 296 300 300 285 266 254 241 242 247 250 250 248 255 272 279 284 283 303 313 314 314 311 315 320 324 323 325 329 332 338 334 329 310 288 270 273
313 310 303 302 298 293 284 291 294 295 280 258 249 243 244 247 248 247 245 252 267 274 282 283 304 311 316 313 313 317 321 323 329 329 339 348 357 356 358 360 333 287 264
311 307 301 300 295 289 281 284 287 286 274 255 248 245 246 247 247 243 242 249 258 267 279 282 303 314 315 312 319 325 328 324 329 336 349 358 7 14 23 25 22 11 337
310 306 301 299 291 282 276 279 280 281 264 247 246 245 246 246 246 239 239 245 249 259 269 277 299 315 312 322 321 336 339 331 342 360 6 10 20 25 34 38 45 46 34
308 305 301 297 287 280 276 269 277 276 260 245 244 244 246 246 244 236 234 239 241 247 259 266 290 308 317 328 333 344 351 355 16 32 36 35 42 44 58 70 82 85 82
304 296 296 293 280 278 270 270 275 271 263 249 254 249 244 245 243 238 236 236 237 237 248 254 277 298 315 331 343 358 18 28 45 55 60 63 66 67 70 88 96 94 90
298 294 293 283 280 277 271 274 268 270 259 244 244 246 243 244 238 229 229 228 229 226 235 239 255 275 289 339 11 28 43 53 66 75 77 79 83 88 92 92 91 88 85
295 292 287 269 267 271 269 272 272 274 259 239 237 238 229 232 225 222 222 222 223 224 225 220 229 240 239 150 67 62 70 72 78 83 89 97 98 97 96 93 90 88 84
294 288 282 270 267 267 268 272 275 274 262 238 233 229 219 223 218 218 218 217 220 218 220 207 208 214 196 158 114 95 85 86 88 90 94 97 100 98 96 94 96 97 96
293 286 273 259 270 270 264 272 272 270 251 237 232 226 219 217 214 215 216 217 216 215 219 205 199 194 185 161 137 117 103 101 101 99 99 99 98 98 100 99 101 102 104
290 281 265 255 260 270 268 271 272 261 237 228 229 221 214 210 206 209 211 208 210 205 214 208 201 194 178 162 148 135 125 119 113 110 108 106 105 105 104 105 106 108 107
287 274 259 250 253 267 265 265 270 257 228 225 223 217 217 215 211 211 210 206 205 202 205 206 201 196 181 165 153 142 136 131 126 120 115 113 111 112 110 110 109 111 112
278 266 255 244 250 263 263 266 263 249 223 219 218 215 216 216 217 215 212 205 202 201 197 202 199 195 184 171 159 149 141 138 136 131 125 121 118 115 114 114 117 116 117
272 260 253 247 242 259 261 264 259 237 217 213 217 214 211 212 214 215 210 203 199 201 197 196 196 193 187 177 168 159 149 147 144 138 135 131 127 122 119 120 121 122 122
270 257 251 252 250 251 258 259 252 230 213 207 214 212 210 214 215 211 203 199 198 199 200 197 193 190 187 180 172 166 159 155 153 149 141 137 132 126 122 123 123 123 121
268 255 248 251 253 252 254 252 244 224 211 203 213 211 209 214 215 209 205 202 200 200 200 197 192 190 186 182 177 172 169 163 161 160 156 148 144 137 133 132 131 131 129
265 251 244 248 248 246 248 244 234 217 210 203 208 207 207 213 211 208 206 204 204 202 200 199 195 193 191 187 182 179 176 172 169 166 163 155 149 146 142 141 141 139 134